Regional Weather Roundup
Issued by NWS Kansas City/Pleasant Hill, MO

Home | Current Version | Previous Version | Text Only | Print | Product List | Glossary On
Versions: 1 2 3 4 5 6 7 8 9 10 11 12 13 14 15 16 17 18 19 20 21 22 23 24 25 26 27
000
ASUS43 KEAX 260110
RWREAX

WEATHER ROUNDUP FOR EASTERN KANSAS AND NORTHWEST MISSOURI
NATIONAL WEATHER SERVICE KANSAS CITY/PLEASANT HILL MO
800 PM CDT THU AUG 25 2016

KSZ040-057-103>105-MOZ028-029-037-043-260200-
...KANSAS CITY METROPOLITAN AREA...

CITY           SKY/WX    TMP DP  RH WIND       PRES   REMARKS
K.C. INTL      CLOUDY    75  66  73 NE13      30.07R
K.C. DOWNTOWN  CLOUDY    77  69  76 NE9       30.05R
LEES SUMMIT    CLOUDY    77  71  82 NE13      30.06R
OLATHE - IXD   CLOUDY    76  70  82 N10       30.06R
OLATHE - OJC   CLOUDY    78  70  76 N8        30.05R
LAWRENCE       CLOUDY    76  70  82 N5        30.06R

$$

MOZ001>008-011>017-020>025-030>033-038>040-044>046-053-054-260200-
...NORTHERN AND CENTRAL MISSOURI...

CITY           SKY/WX    TMP DP  RH WIND       PRES   REMARKS
ST. JOSEPH     PTCLDY    72  66  81 N6        30.08R
MOSBY          MOCLDY    73  68  83 N8        30.05R
WHITEMAN AFB   MOCLDY    79  79 100 N5        30.02R
CLINTON        CLOUDY    75  68  78 CALM      30.03S
SEDALIA        CLOUDY    80  74  81 N6        30.04R
WARSAW         NOT AVBL
CHILLICOTHE      N/A     74  67  78 VRB3      30.07
KIRKSVILLE     PTCLDY    71  66  84 NE5       30.08S

$$

MOZ041-047>049-056>058-063>065-088>090-097-260200-
...EASTERN AND SOUTHERN MISSOURI...

CITY           SKY/WX    TMP DP  RH WIND       PRES   REMARKS
ST. LOUIS INTL CLOUDY    89  70  53 SW3       30.02S HX  94
SPIRIT OF STL  CLOUDY    82  77  84 CALM      30.00S HX  90
COLUMBIA       CLOUDY    76  72  87 S8        30.03R
JEFFERSON CITY CLOUDY    80  68  66 SW7       30.02R
ROLLA          CLOUDY    77  74  90 CALM      30.03S
OSAGE BEACH    CLOUDY    72  70  93 CALM      30.04R
SPRINGFIELD    CLOUDY    78  60  53 NE17G25   30.06R
BRANSON        CLOUDY    81  72  74 S6        30.07R
JOPLIN         TSTM      75  70  84 SE8       30.04R
WEST PLAINS    CLOUDY    81  70  69 CALM      30.09R

$$

IAZ060-094-KSZ022-034>040-054-083-096-NEZ052-066-093-260200-
...KANSAS...SOUTHEAST NEBRASKA AND IOWA...

CITY           SKY/WX    TMP DP  RH WIND       PRES   REMARKS
TOPEKA         PTCLDY    75  68  78 N8        30.07R
MANHATTAN      CLEAR     72  64  76 NE6       30.07R
EMPORIA        PTCLDY    76  69  79 N7        30.06R
CHANUTE        MOCLDY    81  73  76 NE3       30.03R
WICHITA        PTCLDY    79  66  64 N8        30.05R
OMAHA          PTCLDY    71  62  73 N5        30.11R
LINCOLN        CLEAR     70  62  76 NE8       30.12R
FALLS CITY     CLEAR     71  63  75 NE5       30.09R
LAMONI         PTCLDY    68  64  87 N6        30.10R
DES MOINES     MOCLDY    74  63  68 N3        30.09S

$$





USA.gov is the U.S. government's official web portal to all federal, state and local government web resources and services.